• In Germany
  • List of Countries
  • For 7 days
  • Water Temperature
  • Satellite Maps
  • Weather Map
  • Weather Widgets
  • user-avatar
    Login

    Hourly Weather Lugi

    Today, 26 September, Wednesday

    Time Temperature Precipitation Wind Pressure Humidity
    00:00 +2°C° 0 mm 3 mps 743 mmHg 87%
    01:00 +2°C° 0 mm 3 mps 744 mmHg 87%
    02:00 +2°C° 0 mm 2 mps 744 mmHg 93%
    03:00 +2°C° 0 mm 2 mps 745 mmHg 92%
    04:00 0°C° 0 mm 3 mps 745 mmHg 91%
    05:00 0°C° 0 mm 3 mps 746 mmHg 91%
    06:00 +1°C° 0 mm 3 mps 746 mmHg 86%
    07:00 +2°C° 0 mm 3 mps 747 mmHg 81%
    08:00 +3°C° 0 mm 3 mps 747 mmHg 77%
    09:00 +5°C° 0 mm 4 mps 747 mmHg 71%
    10:00 +6°C° 0 mm 4 mps 747 mmHg 65%
    11:00 +8°C° 0 mm 4 mps 748 mmHg 59%
    12:00 +9°C° 0 mm 5 mps 747 mmHg 57%
    13:00 +9°C° 0 mm 5 mps 747 mmHg 55%
    14:00 +10°C° 0 mm 5 mps 747 mmHg 53%
    15:00 +9°C° 0 mm 5 mps 746 mmHg 57%
    16:00 +8°C° 0 mm 4 mps 745 mmHg 61%
    17:00 +7°C° 0 mm 4 mps 745 mmHg 64%
    18:00 +7°C° 0 mm 4 mps 744 mmHg 63%
    19:00 +7°C° 0 mm 5 mps 744 mmHg 61%
    20:00 +5°C° 0 mm 6 mps 744 mmHg 60%
    21:00 +5°C° 0.2 mm 6 mps 743 mmHg 63%
    22:00 +5°C° 0.2 mm 7 mps 742 mmHg 66%
    23:00 +5°C° 0.2 mm 7 mps 741 mmHg 69%

    Tomorrow, 27 September, Thursday

    Time Temperature Precipitation Wind Pressure Humidity
    00:00 +4°C° 0.5 mm 8 mps 740 mmHg 73%
    01:00 +3°C° 0.5 mm 9 mps 739 mmHg 77%
    02:00 +3°C° 0.5 mm 9 mps 738 mmHg 81%
    03:00 +3°C° 0.7 mm 9 mps 737 mmHg 84%
    04:00 +3°C° 0.7 mm 9 mps 736 mmHg 86%
    05:00 +3°C° 0.7 mm 9 mps 735 mmHg 88%
    06:00 +5°C° 0.5 mm 9 mps 735 mmHg 89%
    07:00 +5°C° 0.5 mm 8 mps 735 mmHg 89%
    08:00 +6°C° 0.5 mm 8 mps 735 mmHg 90%
    09:00 +8°C° 0.1 mm 7 mps 735 mmHg 87%
    10:00 +9°C° 0.1 mm 7 mps 736 mmHg 84%
    11:00 +9°C° 0.1 mm 7 mps 736 mmHg 80%
    12:00 +10°C° 0.1 mm 7 mps 736 mmHg 73%
    13:00 +11°C° 0.1 mm 7 mps 736 mmHg 66%
    14:00 +12°C° 0.1 mm 7 mps 736 mmHg 59%
    15:00 +11°C° 0 mm 6 mps 736 mmHg 63%
    16:00 +12°C° 0 mm 5 mps 737 mmHg 67%
    17:00 +11°C° 0 mm 4 mps 737 mmHg 71%
    18:00 +10°C° 0 mm 4 mps 737 mmHg 72%
    19:00 +8°C° 0 mm 4 mps 737 mmHg 73%
    20:00 +7°C° 0 mm 4 mps 738 mmHg 75%
    21:00 +7°C° 0 mm 4 mps 738 mmHg 77%
    22:00 +6°C° 0 mm 4 mps 738 mmHg 79%
    23:00 +6°C° 0 mm 4 mps 738 mmHg 81%

    Day after tomorrow, 28 September, Friday

    Time Temperature Precipitation Wind Pressure Humidity
    00:00 +6°C° 0 mm 4 mps 738 mmHg 84%
    01:00 +6°C° 0 mm 4 mps 737 mmHg 87%
    02:00 +6°C° 0 mm 5 mps 737 mmHg 90%
    03:00 +7°C° 0 mm 5 mps 736 mmHg 89%
    04:00 +7°C° 0 mm 6 mps 736 mmHg 88%
    05:00 +8°C° 0 mm 7 mps 735 mmHg 88%
    06:00 +8°C° 0 mm 7 mps 734 mmHg 88%
    07:00 +9°C° 0 mm 8 mps 734 mmHg 88%
    08:00 +10°C° 0 mm 8 mps 734 mmHg 88%
    09:00 +10°C° 0.1 mm 8 mps 733 mmHg 87%
    10:00 +11°C° 0.1 mm 8 mps 733 mmHg 87%
    11:00 +12°C° 0.1 mm 8 mps 732 mmHg 86%
    12:00 +12°C° 0.6 mm 8 mps 732 mmHg 86%
    13:00 +12°C° 0.6 mm 8 mps 732 mmHg 86%
    14:00 +12°C° 0.6 mm 8 mps 732 mmHg 86%
    15:00 +11°C° 0.2 mm 7 mps 733 mmHg 84%
    16:00 +10°C° 0.2 mm 6 mps 734 mmHg 82%
    17:00 +10°C° 0.2 mm 4 mps 734 mmHg 80%
    18:00 +7°C° 0 mm 4 mps 735 mmHg 83%
    19:00 +7°C° 0 mm 3 mps 736 mmHg 86%
    20:00 +6°C° 0 mm 2 mps 737 mmHg 89%
    21:00 +5°C° 0 mm 2 mps 737 mmHg 90%
    22:00 +5°C° 0 mm 1 mps 738 mmHg 90%
    23:00 +5°C° 0 mm 1 mps 738 mmHg 91%

    29 September, Saturday

    Time Temperature Precipitation Wind Pressure Humidity
    00:00 +5°C° 0 mm 1 mps 739 mmHg 91%
    01:00 +4°C° 0 mm 1 mps 739 mmHg 91%
    02:00 +4°C° 0 mm 1 mps 740 mmHg 91%
    03:00 +4°C° 0 mm 1 mps 740 mmHg 91%
    04:00 +4°C° 0 mm 1 mps 740 mmHg 91%
    05:00 +4°C° 0 mm 1 mps 740 mmHg 91%
    06:00 +5°C° 0 mm 1 mps 741 mmHg 88%
    07:00 +6°C° 0 mm 1 mps 741 mmHg 84%
    08:00 +7°C° 0 mm 1 mps 741 mmHg 81%
    09:00 +8°C° 0 mm 1 mps 742 mmHg 76%
    10:00 +9°C° 0 mm 1 mps 742 mmHg 71%
    11:00 +10°C° 0 mm 1 mps 742 mmHg 66%
    12:00 +9°C° 0.1 mm 2 mps 743 mmHg 66%
    13:00 +10°C° 0.1 mm 2 mps 743 mmHg 66%
    14:00 +10°C° 0.1 mm 2 mps 743 mmHg 66%
    15:00 +9°C° 0.1 mm 2 mps 743 mmHg 70%
    16:00 +9°C° 0.1 mm 1 mps 743 mmHg 74%
    17:00 +8°C° 0.1 mm 1 mps 743 mmHg 78%
    18:00 +7°C° 0 mm 1 mps 744 mmHg 80%
    19:00 +6°C° 0 mm 1 mps 744 mmHg 82%
    20:00 +4°C° 0 mm 2 mps 745 mmHg 84%
    21:00 +5°C° 0 mm 1 mps 745 mmHg 84%
    22:00 +4°C° 0 mm 1 mps 746 mmHg 84%
    23:00 +4°C° 0 mm 1 mps 746 mmHg 84%

    30 September, Sunday

    Time Temperature Precipitation Wind Pressure Humidity
    00:00 +3°C° 0 mm 1 mps 746 mmHg 83%
    01:00 +3°C° 0 mm 1 mps 746 mmHg 83%
    02:00 +3°C° 0 mm 1 mps 747 mmHg 83%
    03:00 +3°C° 0 mm 1 mps 747 mmHg 83%
    04:00 +1°C° 0 mm 0 mps 747 mmHg 83%
    05:00 +1°C° 0 mm 0 mps 747 mmHg 83%
    06:00 +2°C° 0 mm 0 mps 747 mmHg 79%
    07:00 +5°C° 0 mm 1 mps 747 mmHg 76%
    08:00 +6°C° 0 mm 1 mps 748 mmHg 72%
    09:00 +7°C° 0 mm 1 mps 748 mmHg 67%
    10:00 +8°C° 0 mm 2 mps 748 mmHg 61%
    11:00 +10°C° 0 mm 3 mps 748 mmHg 56%
    12:00 +10°C° 0 mm 3 mps 747 mmHg 54%
    13:00 +10°C° 0 mm 3 mps 747 mmHg 53%
    14:00 +11°C° 0 mm 4 mps 747 mmHg 52%
    15:00 +10°C° 0 mm 3 mps 746 mmHg 57%
    16:00 +9°C° 0 mm 3 mps 746 mmHg 63%
    17:00 +7°C° 0 mm 2 mps 746 mmHg 69%
    18:00 +7°C° 0 mm 2 mps 746 mmHg 72%
    19:00 +6°C° 0 mm 2 mps 746 mmHg 76%
    20:00 +5°C° 0 mm 2 mps 746 mmHg 79%
    21:00 +4°C° 0 mm 2 mps 746 mmHg 80%
    22:00 +4°C° 0 mm 2 mps 746 mmHg 80%
    23:00 +4°C° 0 mm 2 mps 746 mmHg 81%

    1 October, Monday

    Time Temperature Precipitation Wind Pressure Humidity
    00:00 +3°C° 0 mm 2 mps 746 mmHg 82%
    01:00 +3°C° 0 mm 2 mps 746 mmHg 83%
    02:00 +3°C° 0 mm 2 mps 746 mmHg 83%
    03:00 +3°C° 0 mm 2 mps 745 mmHg 84%
    04:00 +2°C° 0 mm 2 mps 745 mmHg 85%
    05:00 +2°C° 0 mm 2 mps 745 mmHg 85%
    06:00 +3°C° 0 mm 2 mps 745 mmHg 81%
    07:00 +4°C° 0 mm 2 mps 745 mmHg 76%
    08:00 +5°C° 0 mm 3 mps 745 mmHg 72%
    09:00 +7°C° 0 mm 3 mps 745 mmHg 66%
    10:00 +9°C° 0 mm 3 mps 745 mmHg 60%
    11:00 +11°C° 0 mm 3 mps 745 mmHg 54%
    12:00 +11°C° 0 mm 3 mps 745 mmHg 53%
    13:00 +12°C° 0 mm 3 mps 744 mmHg 52%
    14:00 +12°C° 0 mm 3 mps 744 mmHg 51%
    15:00 +11°C° 0 mm 3 mps 744 mmHg 57%
    16:00 +10°C° 0 mm 2 mps 743 mmHg 62%
    17:00 +9°C° 0 mm 2 mps 743 mmHg 68%
    18:00 +8°C° 0 mm 2 mps 743 mmHg 71%
    19:00 +7°C° 0 mm 2 mps 743 mmHg 73%
    20:00 +6°C° 0 mm 2 mps 743 mmHg 76%
    21:00 +5°C° 0 mm 2 mps 743 mmHg 77%
    22:00 +5°C° 0 mm 2 mps 743 mmHg 78%
    23:00 +5°C° 0 mm 2 mps 743 mmHg 79%
    Show more